Current Version              Previous Version:    01  02  03  04  05  06  07  08  09  10  11  12  13  14  15  16  17  18  19  20  21  22  23  24  25  26  27  28  29  30  
   31  32  33  34  35  36  37  38  39  40  41  42  43  44  45  46  47  48  49  50  51  52  53  54  55  56  57  58  59  60  

[Printable]
642
ASUS44 KFWD 182301
RWRTX
NORTH TEXAS HOURLY WEATHER ROUNDUP
NATIONAL WEATHER SERVICE FORT WORTH TX
500 PM CST THU DEC 18 2014

NOTE: "FAIR" INDICATES FEW OR NO CLOUDS BELOW 12,000 FEET WITH NO
SIGNIFICANT WEATHER AND/OR OBSTRUCTIONS TO VISIBILITY.

TXZ118-119-190000-
DALLAS/FORT WORTH METROPLEX

CITY           SKY/WX    TMP DP  RH WIND       PRES   REMARKS
DFW AIRPORT    CLOUDY    48  44  86 N7        30.12R
DALLAS LOVE    CLOUDY    49  45  86 N5        30.12S FOG
FTW MEACHAM    CLOUDY    50  44  80 N7        30.11S
DAL-EXECUTIVE  CLOUDY    50  45  83 N6        30.11S HAZE
FTW-ALLIANCE   CLOUDY    49  43  80 E5        30.11S
FTW-SPINKS     CLOUDY    50  45  81 N5        30.12S
ARLINGTON      CLOUDY    50  43  77 N8        30.12R
GRAND PRAIRIE  CLOUDY    48  46  93 N5        30.13S
MESQUITE       CLOUDY    48  46  93 N5        30.12S FOG
LANCASTER      CLOUDY    48  44  85 N5        30.13R
$$

TXZ091>094-102>105-117-120-121-131>134-190000-
NORTH CENTRAL TEXAS

CITY           SKY/WX    TMP DP  RH WIND       PRES   REMARKS
SHRMAN/DENISON CLOUDY    45  44  99 CALM      30.16R FOG
BRIDGEPORT     CLOUDY    50  46  87 CALM      30.14R
DENTON         CLOUDY    49  43  80 NE6       30.12S
MCKINNEY       CLOUDY    46  44  93 NE3       30.14R FOG
ROCKWALL       CLOUDY    46  46  97 NE5       30.12S FOG
TERRELL        CLOUDY    49  46  90 NE6       30.13S FOG
WAXAHACHIE     CLOUDY    48  47  96 N6        30.13R FOG
CLEBURNE       CLOUDY    50  48  93 NE8       30.11S
GRANBURY       CLOUDY    52  47  83 NE3       30.11S
$$

TXZ083>090-098>101-113>116-127>130-139>142-154-155-190000-
WESTERN NORTH TEXAS

CITY           SKY/WX    TMP DP  RH WIND       PRES   REMARKS
WICHITA FALLS  CLOUDY    44  42  93 N9        30.13S WCI  39
WF-KICKAPOO    CLOUDY    45  45  99 N5        30.15R FOG
VERNON         CLOUDY    46  36  66 NE5       30.14S
ABILENE        MOCLDY    56  40  55 N13       30.07S
ABILENE-DYESS  MOCLDY    56  40  54 NE13      30.06S
BRECKENRIDGE   MOCLDY    52  43  71 N8        30.10R
MINERAL WELLS  CLOUDY    50  45  83 NE8       30.09S
STEPHENVILLE   CLOUDY    53  47  82 NE8       30.09F
COMANCHE       CLOUDY    61  49  63 E3        30.05S
COLEMAN        CLOUDY    63  44  51 E3        30.04F
BRADY          CLEAR     61  43  51 N6        30.03S
$$

TXZ143>147-156>162-174-175-190000-
CENTRAL TEXAS

CITY           SKY/WX    TMP DP  RH WIND       PRES   REMARKS
WACO           CLOUDY    51  47  86 NE9       30.09S
WACO-TSTC      CLOUDY    50  48  93 NE7       30.10S
WACO-MCGREGOR  CLOUDY    52  45  76 N7        30.10S
CORSICANA      CLOUDY    51  48  89 NE5       30.12S
MEXIA          CLOUDY    49  48  96 CALM      30.09S
HEARNE         CLOUDY    56  54  91 CALM      30.08S
TEMPLE         CLOUDY    54  45  71 NE8       30.08R
KILLEEN        PTCLDY    56  50  81 E9        30.06R
KILLEEN-SKYLRK PTCLDY    55  46  71 NE10      30.06R
FORT HOOD      PTCLDY    55  50  83 E9        30.06R
HAMILTON       CLOUDY    59  50  72 E10       30.07R
LAMPASAS       PTCLDY    62  53  73 E6        30.04S
$$

TXZ095>097-106>112-122>126-135>138-148>153-164>167-190000-
EAST TEXAS

CITY           SKY/WX    TMP DP  RH WIND       PRES   REMARKS
PARIS          CLOUDY    45  41  87 CALM      30.15R
SULPHUR SPRNGS CLOUDY    46  45  94 NE3       30.16R FOG
MINEOLA        CLOUDY    48  46  93 CALM      30.14R FOG
TYLER          CLOUDY    50  46  86 NE6       30.11R FOG
LONGVIEW       CLOUDY    52  46  80 NE6       30.11S
MARSHALL       CLOUDY    53  50  89 CALM      30.14S
PALESTINE      CLOUDY    52  51  97 NE3       30.11S FOG
JACKSONVILLE   FOG       51  51  97 NE5       30.11S VSB 1
HENDERSON      CLOUDY    52  49  91 N3        30.12R
NACOGDOCHES    CLOUDY    54  48  82 E3        30.10S
LUFKIN         CLOUDY    58  51  78 E5        30.09S
$$

SUPPLEMENTAL OBSERVATIONS (CENTRAL)

CITY           SKY/WX    TMP DP  RH WIND       PRES   REMARKS
$$

SUPPLEMENTAL OBSERVATIONS (WEST)

CITY           SKY/WX    TMP DP  RH WIND       PRES   REMARKS
$$

SUPPLEMENTAL OBSERVATIONS (EAST)

CITY           SKY/WX    TMP DP  RH WIND       PRES   REMARKS
$$

SUPPLEMENTAL OBSERVATIONS ARE A COLLECTION OF AUTOMATED INSTRUMENTS
THAT ARE MAINTAINED BY A VARIETY OF FEDERAL AND STATE AGENCIES.
CERTAIN ELEMENTS...SUCH AS HUMIDITY VALUES AND SUSTAINED WIND
SPEEDS...MAY BE APPROXIMATED.